• In Hungary
  • List of Countries
  • For 7 days
  • Water Temperature
  • Satellite Maps
  • Weather Map
  • News
  • Weather Widgets
  • user-avatar
    Login

    Hourly Weather Verviers

    Today, 21 February, Wednesday

    Time Temperature Precipitation Wind Pressure Humidity
    00:00 -4°C° 0 mm 2 mps 744 mmHg 86%
    01:00 -4°C° 0 mm 2 mps 744 mmHg 86%
    02:00 -4°C° 0 mm 2 mps 744 mmHg 87%
    03:00 -4°C° 0 mm 2 mps 745 mmHg 87%
    04:00 -4°C° 0 mm 2 mps 745 mmHg 87%
    05:00 -4°C° 0 mm 2 mps 745 mmHg 87%
    06:00 -4°C° 0 mm 2 mps 745 mmHg 89%
    07:00 -4°C° 0 mm 3 mps 745 mmHg 83%
    08:00 -2°C° 0 mm 3 mps 746 mmHg 77%
    09:00 -1°C° 0 mm 3 mps 746 mmHg 71%
    10:00 0°C° 0 mm 3 mps 746 mmHg 67%
    11:00 0°C° 0 mm 4 mps 746 mmHg 62%
    12:00 +2°C° 0 mm 3 mps 746 mmHg 58%
    13:00 +1°C° 0 mm 4 mps 745 mmHg 58%
    14:00 +1°C° 0 mm 4 mps 745 mmHg 58%
    15:00 +1°C° 0 mm 4 mps 744 mmHg 58%
    16:00 0°C° 0 mm 4 mps 744 mmHg 64%
    17:00 -1°C° 0 mm 3 mps 744 mmHg 70%
    18:00 -2°C° 0 mm 3 mps 744 mmHg 75%
    19:00 -2°C° 0 mm 3 mps 744 mmHg 77%
    20:00 -4°C° 0 mm 3 mps 745 mmHg 79%
    21:00 -4°C° 0 mm 3 mps 745 mmHg 81%
    22:00 -4°C° 0 mm 3 mps 745 mmHg 82%
    23:00 -5°C° 0 mm 3 mps 745 mmHg 82%

    Tomorrow, 22 February, Thursday

    Time Temperature Precipitation Wind Pressure Humidity
    00:00 -5°C° 0 mm 3 mps 745 mmHg 83%
    01:00 -5°C° 0 mm 3 mps 744 mmHg 82%
    02:00 -5°C° 0 mm 3 mps 744 mmHg 82%
    03:00 -5°C° 0 mm 3 mps 744 mmHg 81%
    04:00 -5°C° 0 mm 3 mps 744 mmHg 79%
    05:00 -5°C° 0 mm 4 mps 744 mmHg 78%
    06:00 -5°C° 0 mm 4 mps 744 mmHg 76%
    07:00 -4°C° 0 mm 4 mps 744 mmHg 69%
    08:00 -4°C° 0 mm 5 mps 745 mmHg 62%
    09:00 -3°C° 0 mm 6 mps 745 mmHg 55%
    10:00 -2°C° 0 mm 6 mps 745 mmHg 52%
    11:00 -1°C° 0 mm 6 mps 744 mmHg 48%
    12:00 +1°C° 0 mm 6 mps 744 mmHg 45%
    13:00 +1°C° 0 mm 6 mps 744 mmHg 46%
    14:00 +1°C° 0 mm 6 mps 744 mmHg 47%
    15:00 +1°C° 0 mm 6 mps 743 mmHg 48%
    16:00 -1°C° 0 mm 5 mps 743 mmHg 53%
    17:00 -2°C° 0 mm 4 mps 744 mmHg 58%
    18:00 -3°C° 0 mm 4 mps 744 mmHg 63%
    19:00 -3°C° 0 mm 4 mps 744 mmHg 66%
    20:00 -4°C° 0 mm 4 mps 744 mmHg 68%
    21:00 -4°C° 0 mm 4 mps 744 mmHg 70%
    22:00 -4°C° 0 mm 4 mps 744 mmHg 71%
    23:00 -5°C° 0 mm 4 mps 744 mmHg 71%

    Day after tomorrow, 23 February, Friday

    Time Temperature Precipitation Wind Pressure Humidity
    00:00 -5°C° 0 mm 4 mps 744 mmHg 72%
    01:00 -5°C° 0 mm 4 mps 744 mmHg 72%
    02:00 -5°C° 0 mm 4 mps 743 mmHg 72%
    03:00 -7°C° 0 mm 4 mps 743 mmHg 71%
    04:00 -7°C° 0 mm 4 mps 743 mmHg 71%
    05:00 -7°C° 0 mm 4 mps 743 mmHg 70%
    06:00 -7°C° 0 mm 4 mps 743 mmHg 69%
    07:00 -6°C° 0 mm 5 mps 743 mmHg 63%
    08:00 -5°C° 0 mm 5 mps 743 mmHg 58%
    09:00 -5°C° 0 mm 5 mps 743 mmHg 52%
    10:00 -2°C° 0 mm 5 mps 743 mmHg 47%
    11:00 -2°C° 0 mm 6 mps 743 mmHg 42%
    12:00 -1°C° 0 mm 6 mps 743 mmHg 37%
    13:00 -1°C° 0 mm 6 mps 742 mmHg 36%
    14:00 -1°C° 0 mm 6 mps 742 mmHg 34%
    15:00 +1°C° 0 mm 6 mps 742 mmHg 33%
    16:00 -1°C° 0 mm 5 mps 742 mmHg 36%
    17:00 -2°C° 0 mm 5 mps 742 mmHg 38%
    18:00 -3°C° 0 mm 4 mps 742 mmHg 41%
    19:00 -4°C° 0 mm 4 mps 742 mmHg 42%
    20:00 -4°C° 0 mm 4 mps 742 mmHg 44%
    21:00 -6°C° 0 mm 5 mps 742 mmHg 45%
    22:00 -6°C° 0 mm 5 mps 742 mmHg 46%
    23:00 -6°C° 0 mm 5 mps 742 mmHg 47%

    24 February, Saturday

    Time Temperature Precipitation Wind Pressure Humidity
    00:00 -6°C° 0 mm 5 mps 742 mmHg 47%
    01:00 -6°C° 0 mm 5 mps 742 mmHg 47%
    02:00 -6°C° 0 mm 5 mps 742 mmHg 47%
    03:00 -6°C° 0 mm 5 mps 742 mmHg 47%
    04:00 -6°C° 0 mm 5 mps 742 mmHg 46%
    05:00 -6°C° 0 mm 5 mps 742 mmHg 44%
    06:00 -6°C° 0 mm 5 mps 743 mmHg 43%
    07:00 -5°C° 0 mm 6 mps 743 mmHg 40%
    08:00 -4°C° 0 mm 6 mps 743 mmHg 36%
    09:00 -3°C° 0 mm 7 mps 743 mmHg 33%
    10:00 -2°C° 0 mm 7 mps 743 mmHg 32%
    11:00 -1°C° 0 mm 7 mps 743 mmHg 30%
    12:00 +2°C° 0 mm 7 mps 743 mmHg 29%
    13:00 +2°C° 0 mm 7 mps 743 mmHg 32%
    14:00 +2°C° 0 mm 7 mps 743 mmHg 34%
    15:00 +2°C° 0 mm 7 mps 743 mmHg 37%
    16:00 0°C° 0 mm 7 mps 743 mmHg 41%
    17:00 -2°C° 0 mm 6 mps 743 mmHg 46%
    18:00 -3°C° 0 mm 6 mps 744 mmHg 50%
    19:00 -4°C° 0 mm 6 mps 744 mmHg 48%
    20:00 -5°C° 0 mm 6 mps 744 mmHg 46%
    21:00 -5°C° 0 mm 6 mps 745 mmHg 44%
    22:00 -6°C° 0 mm 6 mps 745 mmHg 43%
    23:00 -6°C° 0 mm 6 mps 745 mmHg 42%

    25 February, Sunday

    Time Temperature Precipitation Wind Pressure Humidity
    00:00 -6°C° 0 mm 6 mps 745 mmHg 41%
    01:00 -8°C° 0 mm 6 mps 745 mmHg 41%
    02:00 -8°C° 0 mm 6 mps 745 mmHg 40%
    03:00 -8°C° 0 mm 6 mps 745 mmHg 40%
    04:00 -9°C° 0 mm 6 mps 745 mmHg 40%
    05:00 -9°C° 0 mm 6 mps 746 mmHg 39%
    06:00 -8°C° 0 mm 5 mps 746 mmHg 38%
    07:00 -9°C° 0 mm 6 mps 746 mmHg 36%
    08:00 -8°C° 0 mm 6 mps 746 mmHg 33%
    09:00 -6°C° 0 mm 6 mps 747 mmHg 30%
    10:00 -6°C° 0 mm 6 mps 747 mmHg 28%
    11:00 -5°C° 0 mm 6 mps 747 mmHg 26%
    12:00 -4°C° 0 mm 6 mps 747 mmHg 24%
    13:00 -4°C° 0 mm 6 mps 747 mmHg 24%
    14:00 -4°C° 0 mm 6 mps 746 mmHg 24%
    15:00 -4°C° 0 mm 6 mps 746 mmHg 24%
    16:00 -5°C° 0 mm 6 mps 746 mmHg 27%
    17:00 -6°C° 0 mm 5 mps 747 mmHg 30%
    18:00 -7°C° 0 mm 5 mps 747 mmHg 33%
    19:00 -7°C° 0 mm 5 mps 747 mmHg 35%
    20:00 -8°C° 0 mm 5 mps 747 mmHg 36%
    21:00 -8°C° 0 mm 5 mps 748 mmHg 37%
    22:00 -8°C° 0 mm 5 mps 748 mmHg 39%
    23:00 -8°C° 0 mm 5 mps 748 mmHg 40%

    26 February, Monday

    Time Temperature Precipitation Wind Pressure Humidity
    00:00 -9°C° 0 mm 4 mps 748 mmHg 42%
    01:00 -9°C° 0 mm 4 mps 748 mmHg 43%
    02:00 -9°C° 0 mm 4 mps 747 mmHg 45%
    03:00 -9°C° 0 mm 4 mps 747 mmHg 46%
    04:00 -9°C° 0 mm 4 mps 747 mmHg 46%
    05:00 -10°C° 0 mm 4 mps 747 mmHg 47%
    06:00 -10°C° 0 mm 4 mps 747 mmHg 48%
    07:00 -10°C° 0 mm 5 mps 747 mmHg 45%
    08:00 -10°C° 0 mm 6 mps 747 mmHg 42%
    09:00 -9°C° 0 mm 6 mps 747 mmHg 39%
    10:00 -8°C° 0 mm 6 mps 747 mmHg 36%
    11:00 -8°C° 0 mm 6 mps 746 mmHg 33%
    12:00 -6°C° 0 mm 6 mps 746 mmHg 31%
    13:00 -6°C° 0 mm 6 mps 746 mmHg 30%
    14:00 -6°C° 0 mm 6 mps 745 mmHg 30%
    15:00 -6°C° 0 mm 6 mps 745 mmHg 30%
    16:00 -6°C° 0 mm 5 mps 745 mmHg 32%
    17:00 -7°C° 0 mm 4 mps 745 mmHg 35%
    18:00 -8°C° 0 mm 4 mps 745 mmHg 38%
    19:00 -8°C° 0 mm 4 mps 745 mmHg 39%
    20:00 -9°C° 0 mm 4 mps 745 mmHg 40%
    21:00 -9°C° 0 mm 4 mps 745 mmHg 41%
    22:00 -8°C° 0 mm 3 mps 745 mmHg 42%
    23:00 -8°C° 0 mm 3 mps 745 mmHg 43%
    Show more